Content
SEND FEEDBACK

Daily
Averages
Monthly
Summary
United States of America

ASHEVILLE, NORTH CAROLINA


Home > North America > United States > North Carolina
Elevation: 2240 feet     Latitude: 35 36N     Longitude: 082 32W

WEATHER
 
SELECT A DAY
Number of Records: 225,295;   Date Range: 1/1/95 - 7/7/14
 
SHARE

PRINT THIS DATA

[ ← Previous Day ]
WEATHER ALMANAC - JUNE 19, 2013
[ Next Day → ]
[ °C ]   °F
Weather ElementAverageHighLow
Temperature68.8 °F77 °F (2:54 pm)61 °F (4:54 am)
Dewpoint60.8 °F63 °F (9:54 pm)59 °F (1:54 am)
Humidity77.2 %94 % (7:40 am)56 % (2:54 pm)
Barometer30.03 in30.12 in (10:54 pm)29.94 in (1:54 am)
Wind Speed4.1 mph10.4 mph (9:54 am)
Weather ElementAverage
Visibility9.8 mi
Wind DirectionSSE (151.6 °)

Weather ElementTotal
Precipitation---
Cooling Degree Days4 (Base 65)
Growing Degree Days19 (Base 50)
Averaged from 25 records on June 19, 2013
WEATHER CONDITIONS BREAKOUT
WIND DIRECTION BREAKOUT
WEATHER BY HOUR - JUNE 19, 2013
[ °C ]   °F
Local TimeTemperatureDewpointHumidityBarometerVisibilityWind DirectionWind SpeedGust SpeedPrecipitationEventsConditions
1:54 AM64.0 °F59.0 °F84 %29.94 in10.0 miNorth (360°)4.6 mphOvercast
2:54 AM62.1 °F60.1 °F93 %29.94 in10.0 miNNW (340°)6.9 mphMostly Cloudy
3:54 AM62.1 °F59.0 °F90 %29.94 in10.0 miNNE (30°)3.5 mphClear
4:54 AM61.0 °F59.0 °F93 %29.95 in10.0 miCalmPartly Cloudy
5:54 AM61.0 °F59.0 °F93 %29.97 in10.0 miCalmOvercast
6:54 AM61.0 °F59.0 °F93 %29.99 in8.0 miNorth (350°)4.6 mphPartly Cloudy
7:40 AM62.6 °F60.8 °F94 %30.07 in9.0 miNNW (340°)5.8 mphMostly Cloudy
7:54 AM62.1 °F60.1 °F93 %30.01 in8.0 miNNW (340°)8.1 mphOvercast
8:17 AM62.6 °F60.8 °F94 %30.08 in10.0 miNNW (330°)6.9 mphScattered Clouds
8:54 AM66.0 °F61.0 °F84 %30.03 in10.0 miNNW (330°)8.1 mphClear
9:54 AM69.1 °F62.1 °F78 %30.03 in10.0 miNNW (340°)10.4 mphClear
10:54 AM72.0 °F61.0 °F68 %30.03 inNNW (330°)6.9 mph0.00 inClear
11:54 AM75.0 °F61.0 °F62 %30.04 in10.0 miCalmClear
12:54 PM75.9 °F61.0 °F60 %30.03 in10.0 miNorth (10°)8.1 mphScattered Clouds
1:54 PM75.9 °F61.0 °F60 %30.04 in10.0 miNNW (340°)5.8 mphClear
2:54 PM77.0 °F60.1 °F56 %30.03 in10.0 miVariable3.5 mphPartly Cloudy
3:54 PM75.9 °F60.1 °F58 %30.02 in10.0 miCalmMostly Cloudy
4:54 PM75.9 °F61.0 °F60 %30.02 in10.0 miVariable3.5 mphMostly Cloudy
5:54 PM75.0 °F60.1 °F60 %30.03 in10.0 miESE (120°)4.6 mphPartly Cloudy
6:54 PM75.9 °F62.1 °F62 %30.04 in10.0 miESE (110°)4.6 mphClear
7:54 PM73.9 °F62.1 °F66 %30.06 in10.0 miESE (120°)3.5 mphPartly Cloudy
8:54 PM72.0 °F62.1 °F71 %30.07 in10.0 miVariable3.5 mphScattered Clouds
9:54 PM69.1 °F63.0 °F81 %30.09 in10.0 miCalm0.00 inPartly Cloudy
10:54 PM66.9 °F63.0 °F87 %30.12 in10.0 miCalmMostly Cloudy
11:54 PM66.0 °F63.0 °F90 %30.12 in10.0 miCalmScattered Clouds
Hourly data recorded from KAVL, located miles away from Asheville, North Carolina







STORIES FROM OUR PARTNERS